| time (UTC) | temp C | wind direction | speed KPH | gust KPH | rain 1hr cm | rain 24hr cm | rain mn cm | humidity % | barometer mb |
| 20260507080233 | 24 | 244 | 0.0 | 0.0 | 0.00 | 0.00 | 0.00 | 98 | 1012.0 |
| 20260507075733 | 24 | 203 | 0.0 | 0.0 | 0.00 | 0.00 | 0.00 | 98 | 1012.0 |
| 20260507075233 | 24 | 154 | 0.0 | 0.0 | 0.00 | 0.00 | 0.00 | 97 | 1013.0 |
| 20260507074734 | 24 | 30 | 0.0 | 0.0 | 0.00 | 0.00 | 0.00 | 98 | 1013.0 |
| 20260507074233 | 24 | 278 | 0.0 | 3.2 | 0.00 | 0.00 | 0.00 | 98 | 1013.0 |
| 20260507073734 | 24 | 156 | 0.0 | 0.0 | 0.00 | 0.00 | 0.00 | 97 | 1013.0 |
| 20260507073234 | 24 | 125 | 0.0 | 1.6 | 0.00 | 0.00 | 0.00 | 98 | 1013.0 |
| 20260507072733 | 23 | 135 | 0.0 | 3.2 | 0.00 | 0.00 | 0.00 | 97 | 1013.0 |
| 20260507072234 | 23 | 156 | 0.0 | 3.2 | 0.00 | 0.00 | 0.00 | 97 | 1013.0 |
| 20260507071734 | 23 | 174 | 0.0 | 3.2 | 0.00 | 0.00 | 0.00 | 97 | 1013.0 |
| 20260507071234 | 23 | 113 | 1.6 | 4.8 | 0.00 | 0.00 | 0.00 | 97 | 1013.0 |
| 20260507070734 | 23 | 129 | 1.6 | 3.2 | 0.00 | 0.00 | 0.00 | 97 | 1013.0 |
| 20260507070233 | 24 | 127 | 0.0 | 3.2 | 0.00 | 0.00 | 0.00 | 97 | 1013.0 |
| 20260507065733 | 24 | 142 | 0.0 | 0.0 | 0.00 | 0.00 | 0.00 | 97 | 1013.0 |
| 20260507065234 | 24 | 121 | 0.0 | 0.0 | 0.00 | 0.00 | 0.00 | 97 | 1013.0 |
| 20260507064733 | 24 | 319 | 0.0 | 1.6 | 0.00 | 0.00 | 0.00 | 97 | 1013.0 |
| 20260507064234 | 24 | 162 | 0.0 | 0.0 | 0.00 | 0.00 | 0.00 | 97 | 1013.0 |
| 20260507063733 | 24 | 109 | 0.0 | 0.0 | 0.00 | 0.00 | 0.00 | 97 | 1013.0 |
| 20260507063236 | 24 | 315 | 0.0 | 1.6 | 0.00 | 0.00 | 0.00 | 97 | 1013.0 |
| 20260507062734 | 24 | 128 | 0.0 | 0.0 | 0.00 | 0.00 | 0.00 | 97 | 1013.0 |
| 20260507062234 | 24 | 58 | 0.0 | 0.0 | 0.00 | 0.00 | 0.00 | 97 | 1014.0 |
| 20260507061734 | 24 | 77 | 0.0 | 1.6 | 0.00 | 0.00 | 0.00 | 97 | 1013.0 |
| 20260507061234 | 24 | 86 | 0.0 | 0.0 | 0.00 | 0.00 | 0.00 | 97 | 1014.0 |
| 20260507060733 | 25 | 152 | 0.0 | 0.0 | 0.00 | 0.00 | 0.00 | 96 | 1014.0 |
| 20260507060233 | 25 | 238 | 0.0 | 0.0 | 0.00 | 0.00 | 0.00 | 97 | 1014.0 |
| 20260507055734 | 25 | 220 | 0.0 | 0.0 | 0.00 | 0.00 | 0.00 | 97 | 1014.0 |
| 20260507055237 | 25 | 149 | 0.0 | 0.0 | 0.00 | 0.00 | 0.00 | 97 | 1014.0 |
| 20260507054735 | 25 | 135 | 0.0 | 1.6 | 0.00 | 0.00 | 0.00 | 97 | 1014.0 |
| 20260507054233 | 25 | 224 | 0.0 | 0.0 | 0.00 | 0.00 | 0.00 | 97 | 1014.0 |
| 20260507053733 | 25 | 311 | 0.0 | 0.0 | 0.00 | 0.00 | 0.00 | 97 | 1014.0 |
| 20260507053234 | 25 | 132 | 0.0 | 1.6 | 0.00 | 0.00 | 0.00 | 97 | 1014.0 |
| 20260507052733 | 25 | 68 | 0.0 | 1.6 | 0.00 | 0.00 | 0.00 | 97 | 1014.0 |
| 20260507052233 | 25 | 68 | 0.0 | 1.6 | 0.00 | 0.00 | 0.00 | 97 | 1014.0 |
| 20260507051733 | 25 | 130 | 0.0 | 0.0 | 0.00 | 0.00 | 0.00 | 97 | 1015.0 |
| 20260507051233 | 25 | 40 | 0.0 | 1.6 | 0.00 | 0.00 | 0.00 | 97 | 1014.0 |
| 20260507050734 | 24 | 113 | 0.0 | 0.0 | 0.00 | 0.00 | 0.00 | 97 | 1015.0 |
| 20260507050234 | 24 | 51 | 0.0 | 0.0 | 0.00 | 0.00 | 0.00 | 97 | 1015.0 |
| 20260507045733 | 24 | 125 | 0.0 | 0.0 | 0.00 | 0.00 | 3.00 | 96 | 1015.0 |
| 20260507045234 | 24 | 162 | 0.0 | 3.2 | 0.00 | 0.00 | 3.00 | 96 | 1015.0 |
| 20260507044733 | 24 | 150 | 1.6 | 3.2 | 0.00 | 0.00 | 3.00 | 96 | 1015.0 |
| 20260507044234 | 24 | 152 | 0.0 | 0.0 | 0.00 | 0.00 | 3.00 | 96 | 1015.0 |
| 20260507043735 | 24 | 135 | 0.0 | 1.6 | 0.00 | 0.00 | 3.00 | 96 | 1015.0 |
| 20260507043233 | 25 | 135 | 0.0 | 3.2 | 0.00 | 0.00 | 3.00 | 95 | 1015.0 |
| 20260507042734 | 25 | 138 | 0.0 | 1.6 | 0.00 | 0.00 | 3.00 | 96 | 1015.0 |
| 20260507042233 | 25 | 217 | 0.0 | 0.0 | 0.00 | 0.00 | 3.00 | 96 | 1015.0 |
| 20260507041733 | 25 | 141 | 1.6 | 3.2 | 0.00 | 0.00 | 3.00 | 96 | 1015.0 |
| 20260507041233 | 25 | 280 | 0.0 | 1.6 | 0.00 | 0.00 | 3.00 | 95 | 1015.0 |
| 20260507040733 | 25 | 127 | 0.0 | 0.0 | 0.00 | 0.00 | 3.00 | 95 | 1015.0 |
| 20260507040233 | 25 | 159 | 0.0 | 1.6 | 0.00 | 0.00 | 3.00 | 95 | 1015.0 |
| 20260507035734 | 25 | 289 | 0.0 | 1.6 | 0.00 | 0.00 | 3.00 | 95 | 1015.0 |
| 20260507035234 | 25 | 32 | 0.0 | 1.6 | 0.00 | 0.00 | 3.00 | 95 | 1015.0 |
| 20260507034734 | 25 | 114 | 0.0 | 0.0 | 0.00 | 0.00 | 3.00 | 95 | 1015.0 |
| 20260507034233 | 25 | 197 | 0.0 | 0.0 | 0.00 | 0.00 | 3.00 | 95 | 1015.0 |
| 20260507033733 | 25 | 60 | 0.0 | 0.0 | 0.00 | 0.00 | 3.00 | 95 | 1015.0 |
| 20260507033234 | 25 | 37 | 0.0 | 0.0 | 0.00 | 0.00 | 3.00 | 95 | 1015.0 |
| 20260507032734 | 25 | 249 | 0.0 | 1.6 | 0.00 | 0.00 | 3.00 | 96 | 1015.0 |
| 20260507032234 | 25 | 297 | 0.0 | 1.6 | 0.00 | 0.00 | 3.00 | 96 | 1015.0 |
| 20260507031735 | 25 | 246 | 0.0 | 1.6 | 0.00 | 0.00 | 3.00 | 96 | 1015.0 |
| 20260507031233 | 25 | 298 | 0.0 | 3.2 | 0.00 | 0.00 | 3.00 | 96 | 1015.0 |
| 20260507030734 | 25 | 250 | 0.0 | 1.6 | 0.00 | 0.00 | 3.00 | 96 | 1015.0 |
| 20260507030233 | 25 | 123 | 0.0 | 1.6 | 0.00 | 0.00 | 3.00 | 96 | 1015.0 |
| 20260507025733 | 25 | 132 | 0.0 | 0.0 | 0.00 | 0.00 | 3.00 | 95 | 1015.0 |
| 20260507025234 | 25 | 132 | 0.0 | 1.6 | 0.00 | 0.00 | 3.00 | 96 | 1015.0 |
| 20260507024734 | 25 | 148 | 0.0 | 1.6 | 0.00 | 0.00 | 3.00 | 95 | 1015.0 |
| 20260507024234 | 25 | 283 | 0.0 | 0.0 | 0.00 | 0.00 | 3.00 | 95 | 1015.0 |
| 20260507023739 | 25 | 242 | 0.0 | 1.6 | 0.00 | 0.00 | 3.00 | 95 | 1015.0 |
| 20260507023233 | 25 | 251 | 0.0 | 0.0 | 0.00 | 0.00 | 3.00 | 95 | 1015.0 |
| 20260507022734 | 25 | 135 | 0.0 | 1.6 | 0.00 | 0.00 | 3.00 | 95 | 1015.0 |
| 20260507022233 | 25 | 131 | 0.0 | 0.0 | 0.00 | 0.00 | 3.00 | 96 | 1015.0 |
| 20260507021734 | 25 | 231 | 0.0 | 0.0 | 0.00 | 0.00 | 3.00 | 95 | 1015.0 |
| 20260507021234 | 25 | 98 | 0.0 | 0.0 | 0.00 | 0.00 | 3.00 | 96 | 1014.0 |
| 20260507020733 | 25 | 152 | 0.0 | 0.0 | 0.00 | 0.00 | 3.00 | 96 | 1015.0 |
| 20260507020234 | 25 | 203 | 0.0 | 0.0 | 0.00 | 0.00 | 3.00 | 95 | 1014.0 |
| 20260507015733 | 25 | 150 | 0.0 | 4.8 | 0.00 | 0.00 | 3.00 | 95 | 1014.0 |
| 20260507015233 | 25 | 182 | 3.2 | 3.2 | 0.00 | 0.00 | 3.00 | 95 | 1014.0 |
| 20260507014734 | 25 | 182 | 0.0 | 1.6 | 0.00 | 0.00 | 3.00 | 95 | 1014.0 |
| 20260507014233 | 25 | 132 | 0.0 | 1.6 | 0.00 | 0.00 | 3.00 | 94 | 1014.0 |
| 20260507013739 | 25 | 224 | 0.0 | 0.0 | 0.00 | 0.00 | 3.00 | 94 | 1014.0 |
| 20260507013233 | 25 | 144 | 0.0 | 1.6 | 0.00 | 0.00 | 3.00 | 94 | 1014.0 |
| 20260507012733 | 25 | 143 | 0.0 | 3.2 | 0.00 | 0.00 | 3.00 | 94 | 1014.0 |
| 20260507012233 | 25 | 122 | 1.6 | 3.2 | 0.00 | 0.00 | 3.00 | 93 | 1014.0 |
| 20260507011734 | 25 | 125 | 0.0 | 3.2 | 0.00 | 0.00 | 3.00 | 93 | 1013.0 |
| 20260507011234 | 25 | 148 | 1.6 | 3.2 | 0.00 | 0.00 | 3.00 | 93 | 1014.0 |
| 20260507010733 | 25 | 108 | 0.0 | 1.6 | 0.00 | 0.00 | 3.00 | 93 | 1013.0 |
| 20260507010233 | 25 | 130 | 0.0 | 4.8 | 0.00 | 0.00 | 3.00 | 92 | 1013.0 |
| 20260507005733 | 25 | 141 | 0.0 | 3.2 | 0.00 | 0.00 | 3.00 | 92 | 1013.0 |
| 20260507005234 | 25 | 135 | 0.0 | 1.6 | 0.00 | 0.00 | 3.00 | 92 | 1013.0 |
| 20260507004733 | 26 | 154 | 0.0 | 1.6 | 0.00 | 0.00 | 3.00 | 92 | 1013.0 |
| 20260507004233 | 26 | 164 | 0.0 | 0.0 | 0.00 | 0.00 | 3.00 | 92 | 1013.0 |
| 20260507003734 | 26 | 207 | 0.0 | 1.6 | 0.00 | 0.00 | 3.00 | 92 | 1013.0 |
| 20260507003233 | 26 | 139 | 0.0 | 1.6 | 0.00 | 0.00 | 3.00 | 92 | 1012.0 |
| 20260507002734 | 26 | 132 | 0.0 | 1.6 | 0.00 | 0.00 | 3.00 | 92 | 1012.0 |
| 20260507002234 | 26 | 158 | 0.0 | 0.0 | 0.00 | 0.00 | 3.00 | 92 | 1013.0 |
| 20260507001733 | 26 | 269 | 0.0 | 1.6 | 0.00 | 0.00 | 3.00 | 92 | 1012.0 |
| 20260507001234 | 26 | 234 | 0.0 | 1.6 | 0.00 | 0.00 | 3.00 | 92 | 1012.0 |
| 20260507000734 | 26 | 302 | 0.0 | 0.0 | 0.00 | 0.00 | 3.00 | 92 | 1012.0 |
| 20260507000234 | 26 | 291 | 0.0 | 3.2 | 0.00 | 0.00 | 3.00 | 92 | 1012.0 |
| 20260506235733 | 26 | 181 | 0.0 | 0.0 | 0.00 | 0.00 | 3.00 | 91 | 1012.0 |
| 20260506235234 | 26 | 163 | 0.0 | 1.6 | 0.00 | 0.00 | 3.00 | 91 | 1012.0 |
| 20260506234733 | 26 | 200 | 0.0 | 0.0 | 0.00 | 0.00 | 3.00 | 91 | 1012.0 |
| 20260506234234 | 26 | 200 | 0.0 | 0.0 | 0.00 | 0.00 | 3.00 | 91 | 1012.0 |
| 20260506233733 | 26 | 200 | 0.0 | 8.0 | 0.00 | 0.00 | 3.00 | 90 | 1012.0 |
| 20260506233233 | 26 | 200 | 8.0 | 8.0 | 0.00 | 0.00 | 3.00 | 90 | 1012.0 |
| 20260506232733 | 26 | 200 | 8.0 | 8.0 | 0.00 | 0.00 | 3.00 | 89 | 1012.0 |
| 20260506232234 | 26 | 200 | 8.0 | 8.0 | 0.00 | 0.00 | 3.00 | 89 | 1012.0 |
| 20260506231734 | 26 | 200 | 8.0 | 8.0 | 0.00 | 0.00 | 3.00 | 89 | 1012.0 |
| 20260506231233 | 26 | 200 | 8.0 | 8.0 | 0.00 | 0.00 | 3.00 | 89 | 1012.0 |
| 20260506230733 | 26 | 200 | 8.0 | 8.0 | 0.00 | 0.00 | 3.00 | 88 | 1012.0 |
| 20260506230233 | 27 | 200 | 8.0 | 8.0 | 0.00 | 0.00 | 3.00 | 87 | 1012.0 |
| 20260506225734 | 27 | 200 | 8.0 | 8.0 | 0.00 | 0.00 | 3.00 | 87 | 1011.0 |
| 20260506225233 | 27 | 200 | 8.0 | 8.0 | 0.00 | 0.00 | 3.00 | 86 | 1011.0 |
| 20260506224733 | 27 | 200 | 8.0 | 8.0 | 0.00 | 0.00 | 3.00 | 85 | 1011.0 |
| 20260506224235 | 28 | 200 | 8.0 | 8.0 | 0.00 | 0.00 | 3.00 | 84 | 1011.0 |
| 20260506223733 | 28 | 200 | 8.0 | 8.0 | 0.00 | 0.00 | 3.00 | 83 | 1011.0 |
| 20260506223234 | 28 | 200 | 8.0 | 8.0 | 0.00 | 0.00 | 3.00 | 83 | 1011.0 |
| 20260506222733 | 28 | 200 | 8.0 | 8.0 | 0.00 | 0.00 | 3.00 | 83 | 1010.0 |
| 20260506222234 | 28 | 200 | 8.0 | 8.0 | 0.00 | 0.00 | 3.00 | 83 | 1011.0 |
| 20260506221733 | 28 | 200 | 8.0 | 8.0 | 0.00 | 0.00 | 3.00 | 83 | 1010.0 |
| 20260506221233 | 28 | 200 | 8.0 | 8.0 | 0.00 | 0.00 | 3.00 | 83 | 1010.0 |
| 20260506220733 | 28 | 200 | 8.0 | 8.0 | 0.00 | 0.00 | 3.00 | 84 | 1010.0 |
| 20260506220234 | 28 | 200 | 8.0 | 8.0 | 0.00 | 0.00 | 3.00 | 84 | 1010.0 |
| 20260506215733 | 28 | 200 | 8.0 | 8.0 | 0.00 | 0.00 | 3.00 | 84 | 1011.0 |
| 20260506215234 | 28 | 200 | 8.0 | 8.0 | 0.00 | 0.00 | 3.00 | 84 | 1011.0 |
| 20260506214735 | 28 | 200 | 8.0 | 8.0 | 0.00 | 0.00 | 3.00 | 84 | 1011.0 |
| 20260506214233 | 28 | 200 | 8.0 | 8.0 | 0.00 | 0.00 | 3.00 | 84 | 1010.0 |
| 20260506213235 | 28 | 200 | 8.0 | 8.0 | 0.00 | 0.00 | 3.00 | 84 | 1010.0 |
| 20260506212734 | 28 | 200 | 8.0 | 8.0 | 0.00 | 0.00 | 3.00 | 84 | 1010.0 |
| 20260506212234 | 28 | 200 | 8.0 | 8.0 | 0.00 | 0.00 | 3.00 | 84 | 1010.0 |
| 20260506211733 | 28 | 200 | 8.0 | 8.0 | 0.00 | 0.00 | 3.00 | 83 | 1010.0 |
| 20260506211234 | 28 | 200 | 8.0 | 8.0 | 0.00 | 0.00 | 3.00 | 83 | 1010.0 |
| 20260506210734 | 28 | 200 | 8.0 | 8.0 | 0.00 | 0.00 | 3.00 | 84 | 1011.0 |
| 20260506210234 | 28 | 200 | 8.0 | 8.0 | 0.00 | 0.00 | 3.00 | 83 | 1010.0 |
| 20260506205733 | 28 | 200 | 8.0 | 8.0 | 0.00 | 0.00 | 3.00 | 83 | 1011.0 |
| 20260506203233 | 28 | 200 | 8.0 | 8.0 | 0.00 | 0.00 | 3.00 | 82 | 1010.0 |
| 20260506202733 | 28 | 200 | 8.0 | 8.0 | 0.00 | 0.00 | 3.00 | 82 | 1011.0 |
| 20260506202233 | 28 | 200 | 8.0 | 8.0 | 0.00 | 0.00 | 3.00 | 82 | 1011.0 |
| 20260506201733 | 28 | 200 | 8.0 | 8.0 | 0.00 | 0.00 | 3.00 | 83 | 1010.0 |
| 20260506201234 | 28 | 200 | 8.0 | 8.0 | 0.00 | 0.00 | 3.00 | 83 | 1011.0 |
| 20260506200734 | 28 | 200 | 8.0 | 8.0 | 0.00 | 0.00 | 3.00 | 83 | 1011.0 |
| 20260506200233 | 28 | 200 | 8.0 | 8.0 | 0.00 | 0.00 | 3.00 | 83 | 1011.0 |
| 20260506195733 | 28 | 200 | 8.0 | 8.0 | 0.00 | 0.00 | 3.00 | 82 | 1012.0 |
| 20260506195234 | 28 | 200 | 8.0 | 8.0 | 0.00 | 0.00 | 3.00 | 82 | 1011.0 |
| 20260506194734 | 28 | 200 | 8.0 | 8.0 | 0.00 | 0.00 | 3.00 | 82 | 1012.0 |
| 20260506194233 | 28 | 200 | 8.0 | 8.0 | 0.00 | 0.00 | 3.00 | 83 | 1012.0 |
| 20260506193733 | 28 | 200 | 8.0 | 8.0 | 0.00 | 0.00 | 3.00 | 83 | 1012.0 |
| 20260506193233 | 28 | 200 | 8.0 | 8.0 | 0.00 | 0.00 | 3.00 | 82 | 1012.0 |
| 20260506192734 | 28 | 200 | 8.0 | 8.0 | 0.00 | 0.00 | 3.00 | 83 | 1012.0 |
| 20260506192233 | 28 | 200 | 8.0 | 8.0 | 0.00 | 0.00 | 3.00 | 83 | 1012.0 |
| 20260506191733 | 28 | 200 | 8.0 | 8.0 | 0.00 | 0.00 | 3.00 | 84 | 1012.0 |
| 20260506191233 | 28 | 200 | 8.0 | 8.0 | 0.00 | 0.00 | 3.00 | 84 | 1012.0 |
| 20260506190734 | 28 | 200 | 8.0 | 8.0 | 0.00 | 0.00 | 3.00 | 84 | 1013.0 |
| 20260506190235 | 27 | 200 | 8.0 | 8.0 | 0.00 | 0.00 | 3.00 | 85 | 1012.0 |
| 20260506185733 | 27 | 200 | 8.0 | 8.0 | 0.00 | 0.00 | 3.00 | 84 | 1013.0 |
| 20260506185233 | 28 | 200 | 8.0 | 8.0 | 0.00 | 0.00 | 3.00 | 84 | 1013.0 |
| 20260506184733 | 28 | 200 | 8.0 | 8.0 | 0.00 | 0.00 | 3.00 | 84 | 1013.0 |
| 20260506184233 | 28 | 200 | 8.0 | 8.0 | 0.00 | 0.00 | 3.00 | 84 | 1013.0 |
| 20260506183734 | 28 | 200 | 8.0 | 8.0 | 0.00 | 0.00 | 3.00 | 85 | 1012.0 |
| 20260506183234 | 28 | 200 | 8.0 | 8.0 | 0.00 | 0.00 | 3.00 | 85 | 1013.0 |
| 20260506182733 | 28 | 200 | 8.0 | 8.0 | 0.00 | 0.00 | 3.00 | 85 | 1013.0 |
| 20260506182233 | 29 | 200 | 8.0 | 8.0 | 0.00 | 0.00 | 3.00 | 87 | 1013.0 |
| 20260506181734 | 28 | 200 | 8.0 | 8.0 | 0.00 | 0.00 | 3.00 | 88 | 1013.0 |
| 20260506181233 | 28 | 200 | 8.0 | 8.0 | 0.00 | 0.00 | 3.00 | 88 | 1013.0 |
| 20260506180734 | 28 | 200 | 8.0 | 8.0 | 0.00 | 0.00 | 3.00 | 88 | 1013.0 |
| 20260506180234 | 28 | 200 | 8.0 | 8.0 | 0.00 | 0.00 | 3.00 | 89 | 1014.0 |
| 20260506175733 | 28 | 200 | 8.0 | 8.0 | 0.00 | 0.00 | 3.00 | 91 | 1014.0 |
| 20260506175234 | 27 | 200 | 8.0 | 8.0 | 0.00 | 0.00 | 3.00 | 93 | 1014.0 |
| 20260506174733 | 27 | 200 | 8.0 | 8.0 | 0.00 | 0.00 | 3.00 | 93 | 1014.0 |
| 20260506174234 | 26 | 176 | 6.4 | 8.0 | 0.00 | 0.00 | 3.00 | 94 | 1015.0 |
| 20260506173733 | 26 | 198 | 3.2 | 6.4 | 0.00 | 0.00 | 3.00 | 94 | 1015.0 |
| 20260506173234 | 26 | 208 | 4.8 | 11.3 | 0.00 | 0.00 | 3.00 | 95 | 1015.0 |
| 20260506172733 | 26 | 251 | 3.2 | 11.3 | 0.00 | 0.00 | 3.00 | 96 | 1015.0 |
| 20260506172233 | 26 | 195 | 8.0 | 9.7 | 0.00 | 0.00 | 3.00 | 96 | 1015.0 |
| 20260506171734 | 25 | 215 | 6.4 | 9.7 | 0.00 | 0.00 | 3.00 | 97 | 1015.0 |
| 20260506171240 | 25 | 210 | 9.7 | 9.7 | 0.00 | 0.00 | 3.00 | 97 | 1015.0 |
| 20260506170734 | 25 | 193 | 4.8 | 4.8 | 0.00 | 0.00 | 3.00 | 98 | 1015.0 |
| 20260506170233 | 25 | 286 | 1.6 | 4.8 | 0.00 | 0.00 | 3.00 | 98 | 1016.0 |
| 20260506165733 | 25 | 228 | 3.2 | 4.8 | 0.00 | 0.00 | 3.00 | 98 | 1015.0 |
| 20260506165233 | 24 | 163 | 3.2 | 4.8 | 0.00 | 0.00 | 3.00 | 98 | 1016.0 |
| 20260506164733 | 24 | 217 | 3.2 | 4.8 | 0.00 | 0.00 | 3.00 | 98 | 1016.0 |
| 20260506164233 | 24 | 285 | 1.6 | 3.2 | 0.00 | 0.00 | 3.00 | 99 | 1016.0 |
| 20260506163733 | 23 | 233 | 1.6 | 6.4 | 0.00 | 0.00 | 3.00 | 99 | 1016.0 |
| 20260506163234 | 23 | 167 | 0.0 | 1.6 | 0.00 | 0.00 | 3.00 | 99 | 1016.0 |
| 20260506162733 | 23 | 41 | 0.0 | 4.8 | 0.00 | 0.00 | 3.00 | 99 | 1016.0 |
| 20260506162233 | 23 | 300 | 1.6 | 4.8 | 0.00 | 0.00 | 3.00 | 99 | 1016.0 |
| 20260506161734 | 23 | 269 | 3.2 | 6.4 | 0.00 | 0.00 | 3.00 | 99 | 1016.0 |
| 20260506161233 | 23 | 292 | 1.6 | 4.8 | 0.00 | 0.00 | 3.00 | 99 | 1016.0 |
| 20260506160734 | 23 | 263 | 3.2 | 4.8 | 0.05 | 0.00 | 3.00 | 99 | 1017.0 |
| 20260506160235 | 23 | 318 | 1.6 | 4.8 | 0.05 | 0.00 | 3.00 | 99 | 1017.0 |
| 20260506155737 | 23 | 320 | 3.2 | 4.8 | 0.05 | 0.00 | 2.97 | 99 | 1017.0 |
| 20260506155234 | 23 | 344 | 0.0 | 4.8 | 0.05 | 0.00 | 2.97 | 99 | 1017.0 |
| 20260506154734 | 23 | 297 | 3.2 | 3.2 | 0.13 | 0.00 | 2.97 | 99 | 1017.0 |
| 20260506154234 | 23 | 355 | 4.8 | 4.8 | 0.18 | 0.00 | 2.97 | 99 | 1017.0 |
| 20260506153734 | 23 | 34 | 0.0 | 3.2 | 0.13 | 0.00 | 2.95 | 99 | 1017.0 |
| 20260506153236 | 23 | 319 | 0.0 | 4.8 | 0.05 | 0.00 | 2.92 | 99 | 1017.0 |
| 20260506152734 | 23 | 341 | 0.0 | 6.4 | 0.13 | 0.00 | 2.92 | 99 | 1017.0 |
| 20260506152235 | 23 | 26 | 1.6 | 4.8 | 0.18 | 0.00 | 2.92 | 99 | 1017.0 |
| 20260506151733 | 22 | 306 | 1.6 | 4.8 | 0.23 | 0.00 | 2.92 | 99 | 1017.0 |
| 20260506151234 | 22 | 326 | 0.0 | 1.6 | 0.30 | 0.00 | 2.90 | 99 | 1017.0 |
| 20260506150733 | 22 | 21 | 0.0 | 1.6 | 0.36 | 0.00 | 2.87 | 99 | 1018.0 |
| 20260506150237 | 22 | 13 | 0.0 | 1.6 | 0.53 | 0.00 | 2.84 | 99 | 1018.0 |
| 20260506145737 | 22 | 17 | 0.0 | 0.0 | 0.48 | 0.00 | 2.79 | 99 | 1017.0 |
| 20260506145234 | 22 | 47 | 0.0 | 0.0 | 0.48 | 0.00 | 2.74 | 99 | 1018.0 |
| 20260506144733 | 22 | 312 | 0.0 | 0.0 | 0.48 | 0.00 | 2.69 | 99 | 1018.0 |
| 20260506144234 | 22 | 309 | 0.0 | 1.6 | 0.53 | 0.00 | 2.67 | 99 | 1017.0 |
| 20260506143734 | 22 | 10 | 0.0 | 3.2 | 0.71 | 0.00 | 2.62 | 99 | 1017.0 |
| 20260506143236 | 22 | 331 | 1.6 | 1.6 | 0.84 | 0.00 | 2.57 | 99 | 1017.0 |
| 20260506142733 | 22 | 183 | 1.6 | 3.2 | 1.02 | 0.00 | 2.49 | 99 | 1017.0 |
| 20260506142235 | 22 | 349 | 0.0 | 1.6 | 0.89 | 0.00 | 2.41 | 99 | 1017.0 |
| 20260506141733 | 22 | 37 | 0.0 | 1.6 | 0.61 | 0.00 | 2.34 | 99 | 1017.0 |
| 20260506141233 | 22 | 311 | 0.0 | 0.0 | 0.23 | 0.00 | 2.26 | 99 | 1017.0 |
| 20260506140734 | 22 | 103 | 0.0 | 0.0 | 0.23 | 0.00 | 2.24 | 99 | 1017.0 |
| 20260506140235 | 22 | 103 | 0.0 | 1.6 | 0.18 | 0.00 | 2.21 | 99 | 1017.0 |
| 20260506135733 | 22 | 114 | 0.0 | 0.0 | 0.30 | 0.00 | 2.18 | 99 | 1017.0 |
| 20260506135233 | 22 | 67 | 0.0 | 3.2 | 0.36 | 0.00 | 2.16 | 99 | 1017.0 |
| 20260506134733 | 22 | 113 | 3.2 | 6.4 | 0.48 | 0.00 | 2.13 | 99 | 1017.0 |
| 20260506134233 | 22 | 139 | 0.0 | 4.8 | 0.66 | 0.00 | 2.11 | 99 | 1017.0 |
| 20260506133733 | 22 | 164 | 0.0 | 1.6 | 0.61 | 0.00 | 2.06 | 99 | 1017.0 |
| 20260506133234 | 22 | 125 | 1.6 | 3.2 | 0.71 | 0.00 | 2.01 | 99 | 1017.0 |
| 20260506132733 | 22 | 262 | 0.0 | 0.0 | 0.61 | 0.00 | 1.93 | 98 | 1017.0 |
| 20260506132234 | 22 | 159 | 0.0 | 3.2 | 0.43 | 0.00 | 1.88 | 98 | 1017.0 |
| 20260506131733 | 23 | 148 | 0.0 | 3.2 | 0.61 | 0.00 | 1.83 | 98 | 1017.0 |
| 20260506131234 | 23 | 113 | 0.0 | 1.6 | 0.53 | 0.00 | 1.80 | 99 | 1017.0 |
| 20260506130734 | 23 | 48 | 0.0 | 1.6 | 0.36 | 0.00 | 1.75 | 98 | 1017.0 |
| 20260506130236 | 22 | 42 | 3.2 | 3.2 | 0.36 | 0.00 | 1.73 | 98 | 1017.0 |
| 20260506125733 | 22 | 23 | 8.0 | 8.0 | 0.43 | 0.00 | 1.68 | 98 | 1016.0 |
| 20260506125233 | 22 | 37 | 8.0 | 9.7 | 0.66 | 0.00 | 1.65 | 98 | 1017.0 |
| 20260506124735 | 22 | 53 | 4.8 | 6.4 | 1.02 | 0.00 | 1.60 | 98 | 1016.0 |
| 20260506124234 | 23 | 41 | 6.4 | 8.0 | 1.55 | 0.00 | 1.55 | 98 | 1016.0 |
| 20260506123733 | 23 | 61 | 3.2 | 6.4 | 1.93 | 0.00 | 1.42 | 97 | 1016.0 |
| 20260506123233 | 23 | 18 | 1.6 | 8.0 | 2.29 | 0.00 | 1.27 | 97 | 1016.0 |
| 20260506122734 | 23 | 129 | 8.0 | 9.7 | 2.11 | 0.00 | 1.09 | 97 | 1016.0 |
| 20260506122234 | 23 | 138 | 6.4 | 11.3 | 1.19 | 0.00 | 0.89 | 98 | 1016.0 |
| 20260506121736 | 23 | 111 | 4.8 | 8.0 | 0.36 | 0.00 | 0.71 | 98 | 1016.0 |
| 20260506121233 | 23 | 175 | 8.0 | 19.3 | 0.13 | 0.00 | 0.69 | 98 | 1016.0 |
| 20260506120734 | 23 | 176 | 9.7 | 20.9 | 0.00 | 0.00 | 0.66 | 98 | 1015.0 |
| 20260506120233 | 23 | 136 | 9.7 | 16.1 | 0.00 | 0.00 | 0.66 | 99 | 1015.0 |
| 20260506115733 | 23 | 139 | 4.8 | 8.0 | 0.00 | 0.00 | 0.66 | 99 | 1015.0 |
| 20260506115234 | 23 | 120 | 4.8 | 6.4 | 0.00 | 0.00 | 0.66 | 99 | 1014.0 |
| 20260506114733 | 23 | 128 | 3.2 | 4.8 | 0.00 | 0.00 | 0.66 | 99 | 1014.0 |
| 20260506114233 | 23 | 122 | 3.2 | 4.8 | 0.00 | 0.00 | 0.66 | 98 | 1014.0 |
| 20260506113734 | 23 | 127 | 3.2 | 4.8 | 0.00 | 0.00 | 0.66 | 99 | 1014.0 |
| 20260506113233 | 23 | 120 | 4.8 | 4.8 | 0.00 | 0.00 | 0.66 | 99 | 1014.0 |
| 20260506112733 | 23 | 114 | 0.0 | 1.6 | 0.00 | 0.00 | 0.66 | 98 | 1014.0 |
| 20260506112243 | 23 | 190 | 0.0 | 0.0 | 0.00 | 0.00 | 0.66 | 98 | 1013.0 |
| 20260506111734 | 23 | 197 | 0.0 | 0.0 | 0.00 | 0.00 | 0.66 | 98 | 1014.0 |
| 20260506111234 | 23 | 119 | 0.0 | 1.6 | 0.00 | 0.00 | 0.66 | 98 | 1013.0 |
| 20260506110733 | 23 | 58 | 0.0 | 0.0 | 0.00 | 0.00 | 0.66 | 98 | 1014.0 |
| 20260506110233 | 23 | 295 | 0.0 | 1.6 | 0.00 | 0.00 | 0.66 | 98 | 1014.0 |
| 20260506105733 | 23 | 156 | 0.0 | 0.0 | 0.00 | 0.00 | 0.66 | 98 | 1014.0 |
| 20260506105233 | 23 | 158 | 0.0 | 3.2 | 0.00 | 0.00 | 0.66 | 98 | 1014.0 |
| 20260506104734 | 23 | 131 | 0.0 | 3.2 | 0.00 | 0.00 | 0.66 | 98 | 1014.0 |
| 20260506104234 | 23 | 123 | 0.0 | 3.2 | 0.00 | 0.00 | 0.66 | 98 | 1014.0 |
| 20260506103734 | 23 | 93 | 0.0 | 3.2 | 0.00 | 0.00 | 0.66 | 99 | 1014.0 |
| 20260506103235 | 23 | 119 | 0.0 | 1.6 | 0.00 | 0.00 | 0.66 | 98 | 1014.0 |
| 20260506102737 | 23 | 44 | 0.0 | 3.2 | 0.00 | 0.00 | 0.66 | 98 | 1014.0 |
| 20260506102235 | 23 | 283 | 1.6 | 3.2 | 0.00 | 0.00 | 0.66 | 98 | 1014.0 |
| 20260506101733 | 23 | 159 | 0.0 | 1.6 | 0.00 | 0.00 | 0.66 | 98 | 1014.0 |
| 20260506101234 | 23 | 269 | 0.0 | 4.8 | 0.00 | 0.00 | 0.66 | 99 | 1014.0 |
| 20260506100734 | 23 | 355 | 0.0 | 1.6 | 0.00 | 0.00 | 0.66 | 99 | 1013.0 |
| 20260506100233 | 23 | 245 | 0.0 | 1.6 | 0.00 | 0.00 | 0.66 | 99 | 1013.0 |
| 20260506095733 | 23 | 137 | 0.0 | 1.6 | 0.00 | 0.00 | 0.66 | 99 | 1013.0 |
| 20260506095233 | 23 | 300 | 0.0 | 1.6 | 0.00 | 0.00 | 0.66 | 99 | 1013.0 |
| 20260506094733 | 23 | 285 | 0.0 | 0.0 | 0.00 | 0.00 | 0.66 | 99 | 1013.0 |
| 20260506094233 | 23 | 224 | 1.6 | 1.6 | 0.00 | 0.00 | 0.66 | 99 | 1013.0 |
| 20260506093734 | 23 | 224 | 1.6 | 1.6 | 0.00 | 0.00 | 0.66 | 98 | 1013.0 |
| 20260506093234 | 23 | 221 | 0.0 | 3.2 | 0.00 | 0.00 | 0.66 | 98 | 1013.0 |
| 20260506092734 | 23 | 295 | 0.0 | 0.0 | 0.00 | 0.00 | 0.66 | 98 | 1013.0 |
| 20260506092234 | 23 | 295 | 0.0 | 0.0 | 0.00 | 0.00 | 0.66 | 98 | 1013.0 |
| 20260506091733 | 23 | 295 | 0.0 | 0.0 | 0.00 | 0.00 | 0.66 | 98 | 1013.0 |
| 20260506091233 | 23 | 295 | 0.0 | 0.0 | 0.00 | 0.00 | 0.66 | 98 | 1013.0 |
| 20260506090733 | 23 | 295 | 0.0 | 0.0 | 0.00 | 0.00 | 0.66 | 98 | 1013.0 |
| 20260506090234 | 23 | 295 | 0.0 | 0.0 | 0.00 | 0.00 | 0.66 | 98 | 1013.0 |
| 20260506085733 | 23 | 295 | 0.0 | 0.0 | 0.00 | 0.00 | 0.66 | 98 | 1012.0 |
| 20260506085233 | 23 | 295 | 0.0 | 0.0 | 0.00 | 0.00 | 0.66 | 98 | 1013.0 |
| 20260506084733 | 23 | 295 | 0.0 | 0.0 | 0.00 | 0.00 | 0.66 | 98 | 1013.0 |
| 20260506084234 | 23 | 295 | 0.0 | 0.0 | 0.00 | 0.00 | 0.66 | 98 | 1013.0 |
| 20260506083733 | 23 | 295 | 0.0 | 0.0 | 0.00 | 0.00 | 0.66 | 97 | 1013.0 |
| 20260506083233 | 23 | 295 | 0.0 | 0.0 | 0.00 | 0.00 | 0.66 | 97 | 1012.0 |
| 20260506082733 | 23 | 295 | 0.0 | 0.0 | 0.00 | 0.00 | 0.66 | 97 | 1013.0 |
| 20260506082233 | 23 | 295 | 0.0 | 0.0 | 0.00 | 0.00 | 0.66 | 97 | 1013.0 |
| 20260506081733 | 23 | 269 | 0.0 | 3.2 | 0.00 | 0.00 | 0.66 | 97 | 1012.0 |
| 20260506081234 | 23 | 133 | 3.2 | 4.8 | 0.00 | 0.00 | 0.66 | 97 | 1013.0 |
| 20260506080734 | 23 | 3 | 3.2 | 8.0 | 0.00 | 0.00 | 0.66 | 98 | 1013.0 |